This is the latest recevied weather packets stored in our database for station/object N9OJR. If no packets are shown the sender has not sent any weather packets the latest 10 day(s).
| Time | Temp. | Humidity | Pressure | Rain* | Wind** | Luminosity | Snow |
|---|---|---|---|---|---|---|---|
| 1777807700 | 0° C | 99% | 1013.5 hPa | 0 mm | - | 33 W/m² | - |
| 1777807398 | 0° C | 99% | 1013.5 hPa | 0 mm | - | 28 W/m² | - |
| 1777807098 | 0° C | 99% | 1013.4 hPa | 0 mm | - | 25 W/m² | - |
| 1777806796 | -0.56° C | 99% | 1013.3 hPa | 0 mm | - | 25 W/m² | - |
| 1777806491 | -0.56° C | 99% | 1013.1 hPa | 0 mm | - | 19 W/m² | - |
| 1777806188 | -0.56° C | 99% | 1013.2 hPa | 0 mm | - | 17 W/m² | - |
| 1777805885 | -0.56° C | 99% | 1013.1 hPa | 0 mm | - | 15 W/m² | - |
| 1777805582 | -0.56° C | 99% | 1012.9 hPa | 0 mm | - | 13 W/m² | - |
| 1777805280 | -1.11° C | 99% | 1013.2 hPa | 0 mm | - | 10 W/m² | - |
| 1777804977 | -0.56° C | 99% | 1013 hPa | 0 mm | - | 7 W/m² | - |
| 1777804675 | -0.56° C | 99% | 1012.9 hPa | 0 mm | - | 6 W/m² | - |
| 1777804372 | -1.11° C | 99% | 1012.8 hPa | 0 mm | - | 3 W/m² | - |
| 1777804069 | -1.11° C | 99% | 1012.7 hPa | 0 mm | - | 3 W/m² | - |
| 1777803766 | -1.11° C | 99% | 1012.8 hPa | 0 mm | - | 1 W/m² | - |
| 1777803461 | -1.11° C | 99% | 1012.8 hPa | 0 mm | - | 0 W/m² | - |
| 1777803159 | -1.11° C | 99% | 1012.7 hPa | 0 mm | - | 0 W/m² | - |
| 1777802856 | -1.67° C | 99% | 1012.9 hPa | 0 mm | - | 0 W/m² | - |
| 1777802554 | -1.67° C | 99% | 1012.8 hPa | 0 mm | - | 0 W/m² | - |
| 1777802251 | -1.67° C | 99% | 1012.7 hPa | 0 mm | - | 0 W/m² | - |
| 1777801950 | -1.67° C | 99% | 1012.7 hPa | 0 mm | - | 0 W/m² | - |
| 1777801646 | -1.67° C | 99% | 1012.5 hPa | 0 mm | - | 0 W/m² | - |
| 1777801345 | -1.67° C | 99% | 1012.7 hPa | 0 mm | - | 0 W/m² | - |
| 1777801040 | -1.11° C | 99% | 1012.7 hPa | 0 mm | - | 0 W/m² | - |
| 1777800738 | -1.11° C | 99% | 1012.9 hPa | 0 mm | - | 0 W/m² | - |
| 1777800438 | -1.11° C | 99% | 1012.8 hPa | 0 mm | - | 0 W/m² | - |
* Rain latest hour (hover to see other rain measurements)
** Current wind speed in m/s (hover to see current wind gust speed)